Regional Weather Roundup
Issued by NWS Jackson, KY

Home | Current Version | Previous Version | Graphics & Text | Print | Product List | Glossary On
Versions: 1 2 3 4 5 6 7 8 9 10 11 12 13 14 15 16 17 18 19 20 21 22 23 24 25 26 27
000
ASUS43 KJKL 100310
RWRJKL

EAST KENTUCKY HOURLY WEATHER ROUNDUP
NATIONAL WEATHER SERVICE JACKSON KY
1000 PM EST FRI DEC 09 2016

NOTE: "FAIR" INDICATES FEW OR NO CLOUDS BELOW 12,000 FEET WITH
NO SIGNIFICANT WEATHER AND/OR OBSTRUCTIONS TO VISIBILITY.

* THESE REPORTS ARE NOT UNDER NWS QUALITY CONTROL AND MAY NOT
  REPORT WEATHER SUCH AS PRECIPITATION AND FOG.

KYZ079-080-083-085-087-088-110-112-115-119-120-100400
...EASTERN KENTUCKY...

CITY           SKY/WX    TMP DP  RH WIND       PRES   REMARKS
JACKSON        CLOUDY    21  14  74 CALM      30.51S
LONDON         CLEAR     19  13  77 N5        30.52S WCI  12
SOMERSET*      CLOUDY    19  16  86 CALM      30.56R
MONTICELLO*    CLEAR     13  11  92 W9        30.56R WCI   1
MIDDLESBORO*   CLEAR     21  17  87 CALM      30.53R
HARLAN APT*    CLEAR     23  16  74 CALM      30.50R
PIKE CO APT*   CLOUDY    21  15  78 NW3       30.50R
BIG SANDY APT* CLOUDY    23  15  70 CALM      30.53R
MOREHEAD APT*  CLOUDY    23  12  63 NW6G12    30.55F WCI  16
ASHLAND*       CLOUDY    25  12  58 W7        30.55S WCI  17
$$

KYZ035-036-041-042-044-050-067-078-099-100400
...CENTRAL KENTUCKY...

CITY           SKY/WX    TMP DP  RH WIND       PRES   REMARKS
MT STERLING*   CLOUDY    23  14  68 NW3       30.55F
FLEMING/MASON* PTCLDY    20  13  72 CALM      30.54F
DANVILLE*      MOCLDY    19  16  86 CALM      30.55R
LEXINGTON      CLOUDY    22  12  65 N3        30.53F
FRANKFORT      CLOUDY    24  12  60 NW5       30.53F WCI  18
LOUISVILLE     MOCLDY    24  11  57 NW6       30.56F WCI  17
LEBANON*       CLOUDY    23  16  74 CALM      30.55S
GLASGOW*       CLEAR     22  17  80 CALM      30.56S
BOWLING GREEN  CLEAR     24  15  68 CALM      30.58S
$$

KYZ091>093-OHZ055-061-077-WVZ005-015-034-035-042-100400
...SOUTHERN OHIO/WEST VIRGINIA...

CITY           SKY/WX    TMP DP  RH WIND       PRES   REMARKS
COVINGTON      CLOUDY    23  14  68 CALM      30.51F
COLUMBUS       FLURRIES  25  19  78 W10       30.50S WCI  15
DAYTON         FLURRIES  23  19  85 W7        30.50F WCI  15
WILMINGTON     CLOUDY    23  16  74 W9        30.50F WCI  13
HUNTINGTON     CLOUDY    24  12  60 W5        30.55R WCI  18
CHARLESTON     FLURRIES  24  13  62 VRB5      30.52R WCI  18
PINEVILLE*       N/A     24  12  61 MISG      30.51R
BECKLEY        CLOUDY    19   9  65 W9        30.40R WCI   8
BLUEFIELD      CLOUDY    16   9  74 W8        30.38R WCI   5
LOGAN CO APT*  CLOUDY    23  14  68 CALM      30.47S
$$

VAZ002-007-008-TNZ017-027-036-066-071-100400
...SOUTHWEST VIRGINIA/EAST TENNESSEE...

CITY           SKY/WX    TMP DP  RH WIND       PRES   REMARKS
WISE*          MOCLDY    18  12  79 CALM      30.41S
ABINGDON*      CLEAR     19  14  81 CALM      30.43S
BRISTOL        CLEAR     22  14  71 N3        30.47R
MORRISTOWN*    PTCLDY    25  16  68 CALM      30.48S
SEVIERVILLE*   CLEAR     21  16  79 CALM      30.51R
KNOXVILLE      CLEAR     27  16  63 N6        30.50F WCI  20
OAK RIDGE      CLEAR     28  16  60 CALM      30.53R
CROSSVILLE     CLEAR     22  14  71 N3        30.47S
NASHVILLE      CLEAR     27  17  66 N3        30.57R
$$

...KEY TO REMARKS...
VSB - VISIBILITY IN MILES
WCI - WIND CHILL INDEX
HX  - HEAT INDEX

$$




USA.gov is the U.S. government's official web portal to all federal, state and local government web resources and services.